Location: Recife
(8.0585°S, 34.8848°W)
Time: 21:57:29
(UTC-03:00)

Tiros 1 - Pass Details

Date: 17 April 2026
Orbit: 618 x 649 km, 48.4° (Epoch: 19 May)

Event Time Altitude Azimuth Distance (km) Brightness Sun altitude
Rises 04:27:58 0° 186° (S) 2,905 10.4 -14.0°
Maximum altitude 04:33:15 10° 135° (SE) 1,984 10.2 -12.7°
Drops below altitude 10° 04:33:26 10° 133° (SE) 1,985 10.2 -12.6°
Sets 04:38:29 0° 85° (E) 2,879 12.7 -11.4°
